When you browse on this site, cookies collect data to enhance your experience and personalize the content and advertising you see.
Visit our Privacy Policy to learn more. By continuing to use the site, you agree to this use of cookies and data.
  • In Österreich
  • Länderverzeichnis
  • Für 7 Tage
  • Wassertemperatur
  • Satellitenkarten
  • Wetterkarte
  • News
  • Widgets
  • user-avatar
    Anmelden

    Stündliche Wetter Tarpon Springs

    Heute, 21 Mai, Dienstag

    Zeit Temperatur Niederschläge Wind Luftdruck Luftfeuchtigkeit
    00:00 +28°C° 0.1 mm 3 m/S 761 mmHg 68%
    01:00 +28°C° 0 mm 3 m/S 761 mmHg 69%
    02:00 +28°C° 0 mm 3 m/S 760 mmHg 70%
    03:00 +27°C° 0 mm 3 m/S 760 mmHg 71%
    04:00 +27°C° 0 mm 3 m/S 760 mmHg 71%
    05:00 +27°C° 0 mm 3 m/S 760 mmHg 72%
    06:00 +27°C° 0 mm 3 m/S 761 mmHg 72%
    07:00 +29°C° 0 mm 3 m/S 761 mmHg 66%
    08:00 +30°C° 0 mm 2 m/S 761 mmHg 59%
    09:00 +31°C° 0 mm 2 m/S 761 mmHg 53%
    10:00 +32°C° 0 mm 2 m/S 761 mmHg 49%
    11:00 +34°C° 0 mm 2 m/S 761 mmHg 44%
    12:00 +35°C° 0 mm 2 m/S 760 mmHg 40%
    13:00 +35°C° 0 mm 2 m/S 760 mmHg 41%
    14:00 +35°C° 0 mm 3 m/S 760 mmHg 42%
    15:00 +35°C° 0 mm 4 m/S 759 mmHg 43%
    16:00 +34°C° 0 mm 3 m/S 759 mmHg 47%
    17:00 +33°C° 0 mm 3 m/S 760 mmHg 51%
    18:00 +31°C° 0 mm 3 m/S 760 mmHg 55%
    19:00 +31°C° 0 mm 3 m/S 760 mmHg 57%
    20:00 +30°C° 0 mm 2 m/S 761 mmHg 59%
    21:00 +30°C° 0 mm 2 m/S 761 mmHg 60%
    22:00 +29°C° 0.1 mm 2 m/S 761 mmHg 62%
    23:00 +29°C° 0.1 mm 3 m/S 761 mmHg 63%

    Morgen, 22 Mai, Mittwoch

    Zeit Temperatur Niederschläge Wind Luftdruck Luftfeuchtigkeit
    00:00 +29°C° 0.1 mm 3 m/S 761 mmHg 64%
    01:00 +28°C° 0 mm 4 m/S 761 mmHg 64%
    02:00 +28°C° 0 mm 4 m/S 761 mmHg 65%
    03:00 +27°C° 0 mm 5 m/S 761 mmHg 65%
    04:00 +27°C° 0 mm 4 m/S 762 mmHg 64%
    05:00 +28°C° 0 mm 4 m/S 762 mmHg 63%
    06:00 +28°C° 0 mm 4 m/S 762 mmHg 63%
    07:00 +29°C° 0 mm 3 m/S 763 mmHg 59%
    08:00 +30°C° 0 mm 3 m/S 763 mmHg 56%
    09:00 +31°C° 0 mm 2 m/S 763 mmHg 52%
    10:00 +34°C° 0 mm 2 m/S 763 mmHg 47%
    11:00 +35°C° 0 mm 2 m/S 763 mmHg 41%
    12:00 +35°C° 0 mm 1 m/S 763 mmHg 35%
    13:00 +36°C° 0 mm 2 m/S 763 mmHg 34%
    14:00 +37°C° 0 mm 3 m/S 763 mmHg 33%
    15:00 +37°C° 0 mm 3 m/S 762 mmHg 31%
    16:00 +36°C° 0 mm 3 m/S 762 mmHg 34%
    17:00 +35°C° 0 mm 4 m/S 763 mmHg 37%
    18:00 +34°C° 0 mm 4 m/S 763 mmHg 40%
    19:00 +33°C° 0 mm 5 m/S 763 mmHg 46%
    20:00 +30°C° 0 mm 6 m/S 764 mmHg 52%
    21:00 +29°C° 0 mm 7 m/S 765 mmHg 58%
    22:00 +28°C° 0 mm 7 m/S 765 mmHg 60%
    23:00 +28°C° 0 mm 6 m/S 765 mmHg 63%

    übermorgen, 23 Mai, Donnerstag

    Zeit Temperatur Niederschläge Wind Luftdruck Luftfeuchtigkeit
    00:00 +27°C° 0 mm 6 m/S 765 mmHg 65%
    01:00 +27°C° 0 mm 6 m/S 765 mmHg 67%
    02:00 +26°C° 0 mm 5 m/S 764 mmHg 68%
    03:00 +26°C° 0 mm 5 m/S 764 mmHg 70%
    04:00 +26°C° 0 mm 5 m/S 764 mmHg 70%
    05:00 +27°C° 0 mm 5 m/S 765 mmHg 71%
    06:00 +27°C° 0 mm 4 m/S 765 mmHg 72%
    07:00 +28°C° 0 mm 4 m/S 765 mmHg 67%
    08:00 +30°C° 0 mm 4 m/S 765 mmHg 63%
    09:00 +32°C° 0 mm 4 m/S 766 mmHg 58%
    10:00 +33°C° 0 mm 4 m/S 765 mmHg 56%
    11:00 +33°C° 0 mm 3 m/S 765 mmHg 55%
    12:00 +34°C° 0 mm 3 m/S 765 mmHg 53%
    13:00 +35°C° 0 mm 3 m/S 765 mmHg 48%
    14:00 +36°C° 0 mm 4 m/S 764 mmHg 42%
    15:00 +37°C° 0 mm 4 m/S 764 mmHg 37%
    16:00 +36°C° 0 mm 5 m/S 764 mmHg 41%
    17:00 +34°C° 0 mm 6 m/S 764 mmHg 45%
    18:00 +33°C° 0 mm 7 m/S 764 mmHg 49%
    19:00 +32°C° 0 mm 7 m/S 764 mmHg 55%
    20:00 +29°C° 0 mm 7 m/S 765 mmHg 60%
    21:00 +28°C° 0 mm 7 m/S 765 mmHg 66%
    22:00 +27°C° 0 mm 6 m/S 765 mmHg 68%
    23:00 +27°C° 0 mm 6 m/S 765 mmHg 71%

    24 Mai, Freitag

    Zeit Temperatur Niederschläge Wind Luftdruck Luftfeuchtigkeit
    00:00 +26°C° 0 mm 5 m/S 765 mmHg 73%
    01:00 +26°C° 0 mm 5 m/S 765 mmHg 75%
    02:00 +26°C° 0 mm 5 m/S 764 mmHg 76%
    03:00 +25°C° 0 mm 4 m/S 764 mmHg 77%
    04:00 +25°C° 0 mm 4 m/S 764 mmHg 77%
    05:00 +26°C° 0 mm 4 m/S 765 mmHg 76%
    06:00 +26°C° 0 mm 4 m/S 765 mmHg 75%
    07:00 +27°C° 0 mm 4 m/S 765 mmHg 68%
    08:00 +29°C° 0 mm 4 m/S 765 mmHg 61%
    09:00 +30°C° 0 mm 3 m/S 766 mmHg 54%
    10:00 +33°C° 0 mm 3 m/S 765 mmHg 48%
    11:00 +34°C° 0 mm 3 m/S 765 mmHg 43%
    12:00 +36°C° 0 mm 3 m/S 764 mmHg 38%
    13:00 +36°C° 0 mm 3 m/S 764 mmHg 37%
    14:00 +37°C° 0 mm 4 m/S 763 mmHg 37%
    15:00 +37°C° 0 mm 4 m/S 763 mmHg 36%
    16:00 +36°C° 0 mm 4 m/S 763 mmHg 40%
    17:00 +35°C° 0 mm 4 m/S 763 mmHg 43%
    18:00 +34°C° 0 mm 4 m/S 763 mmHg 47%
    19:00 +33°C° 0 mm 4 m/S 763 mmHg 50%
    20:00 +32°C° 0 mm 4 m/S 764 mmHg 53%
    21:00 +30°C° 0 mm 4 m/S 764 mmHg 57%
    22:00 +29°C° 0 mm 4 m/S 764 mmHg 60%
    23:00 +28°C° 0 mm 4 m/S 764 mmHg 63%

    25 Mai, Samstag

    Zeit Temperatur Niederschläge Wind Luftdruck Luftfeuchtigkeit
    00:00 +27°C° 0 mm 4 m/S 764 mmHg 66%
    01:00 +27°C° 0 mm 3 m/S 763 mmHg 68%
    02:00 +27°C° 0 mm 2 m/S 763 mmHg 69%
    03:00 +26°C° 0 mm 2 m/S 763 mmHg 70%
    04:00 +27°C° 0 mm 1 m/S 764 mmHg 69%
    05:00 +27°C° 0 mm 1 m/S 764 mmHg 69%
    06:00 +27°C° 0 mm 1 m/S 764 mmHg 68%
    07:00 +29°C° 0 mm 1 m/S 764 mmHg 63%
    08:00 +28°C° 0 mm 0 m/S 764 mmHg 57%
    09:00 +30°C° 0 mm 0 m/S 765 mmHg 52%
    10:00 +33°C° 0 mm 1 m/S 764 mmHg 48%
    11:00 +35°C° 0 mm 2 m/S 764 mmHg 44%
    12:00 +36°C° 0 mm 3 m/S 763 mmHg 40%
    13:00 +36°C° 0 mm 3 m/S 763 mmHg 40%
    14:00 +36°C° 0 mm 4 m/S 763 mmHg 40%
    15:00 +37°C° 0 mm 5 m/S 762 mmHg 40%
    16:00 +36°C° 0 mm 5 m/S 762 mmHg 44%
    17:00 +35°C° 0 mm 4 m/S 762 mmHg 48%
    18:00 +34°C° 0 mm 4 m/S 763 mmHg 51%
    19:00 +33°C° 0 mm 4 m/S 763 mmHg 53%
    20:00 +33°C° 0 mm 3 m/S 763 mmHg 54%
    21:00 +31°C° 0 mm 2 m/S 763 mmHg 55%
    22:00 +31°C° 0 mm 2 m/S 763 mmHg 56%
    23:00 +30°C° 0 mm 2 m/S 763 mmHg 56%

    26 Mai, Sonntag

    Zeit Temperatur Niederschläge Wind Luftdruck Luftfeuchtigkeit
    00:00 +30°C° 0 mm 2 m/S 763 mmHg 57%
    01:00 +30°C° 0 mm 2 m/S 763 mmHg 59%
    02:00 +29°C° 0 mm 2 m/S 763 mmHg 61%
    03:00 +29°C° 0 mm 2 m/S 762 mmHg 63%
    04:00 +29°C° 0 mm 2 m/S 763 mmHg 63%
    05:00 +29°C° 0 mm 2 m/S 763 mmHg 62%
    06:00 +29°C° 0 mm 2 m/S 764 mmHg 62%
    07:00 +31°C° 0 mm 2 m/S 764 mmHg 57%
    08:00 +32°C° 0 mm 2 m/S 764 mmHg 52%
    09:00 +34°C° 0 mm 2 m/S 764 mmHg 48%
    10:00 +35°C° 0 mm 3 m/S 764 mmHg 46%
    11:00 +36°C° 0 mm 3 m/S 763 mmHg 44%
    12:00 +37°C° 0 mm 4 m/S 763 mmHg 42%
    13:00 +37°C° 0 mm 4 m/S 762 mmHg 43%
    14:00 +37°C° 0 mm 4 m/S 762 mmHg 43%
    15:00 +37°C° 0 mm 5 m/S 761 mmHg 44%
    16:00 +36°C° 0 mm 5 m/S 762 mmHg 46%
    17:00 +35°C° 0 mm 5 m/S 762 mmHg 49%
    18:00 +34°C° 0 mm 4 m/S 762 mmHg 52%
    19:00 +34°C° 0 mm 4 m/S 762 mmHg 53%
    20:00 +33°C° 0 mm 3 m/S 762 mmHg 55%
    21:00 +32°C° 0 mm 2 m/S 762 mmHg 56%
    22:00 +31°C° 0 mm 2 m/S 762 mmHg 57%
    23:00 +31°C° 0 mm 2 m/S 762 mmHg 59%
    Mehr zeigen